TimeCDT,TemperatureF,Dew PointF,Humidity,Sea Level PressureIn,VisibilityMPH,Wind Direction,Wind SpeedMPH,Gust SpeedMPH,PrecipitationIn,Events,Conditions,WindDirDegrees,DateUTC
12:52 AM,64.0,61.0,90,29.86,10.0,SSE,8.1,-,N/A,,Scattered Clouds,150,2012-10-24 05:52:00
1:52 AM,63.0,60.1,90,29.85,9.0,SSE,9.2,-,N/A,,Clear,160,2012-10-24 06:52:00
2:52 AM,63.0,60.1,90,29.85,9.0,SSE,5.8,-,N/A,,Clear,160,2012-10-24 07:52:00
3:39 AM,62.6,60.8,94,29.86,10.0,South,5.8,-,N/A,Thunderstorm,Mostly Cloudy,180,2012-10-24 08:39:00
3:52 AM,64.0,61.0,90,29.86,6.0,South,5.8,-,0.01,Rain-Thunderstorm,Thunderstorms and Rain,180,2012-10-24 08:52:00
4:17 AM,64.4,60.8,88,29.87,1.8,SSW,9.2,-,0.16,Rain-Thunderstorm,Heavy Thunderstorms and Rain,200,2012-10-24 09:17:00
4:20 AM,64.4,62.6,94,29.87,1.2,South,8.1,-,0.22,Rain-Thunderstorm,Heavy Rain,190,2012-10-24 09:20:00
4:28 AM,64.4,62.6,94,29.87,3.0,South,9.2,-,0.22,Rain-Thunderstorm,Light Rain,190,2012-10-24 09:28:00
4:35 AM,64.4,62.6,94,29.87,7.0,South,9.2,-,0.22,Rain,Light Rain,190,2012-10-24 09:35:00
4:45 AM,64.4,62.6,94,29.87,8.0,South,10.4,-,0.22,Rain-Thunderstorm,Light Rain,180,2012-10-24 09:45:00
4:52 AM,64.0,62.1,93,29.87,7.0,South,9.2,-,0.22,Thunderstorm,Overcast,180,2012-10-24 09:52:00
5:00 AM,64.4,62.6,94,29.87,7.0,South,9.2,-,N/A,,Overcast,170,2012-10-24 10:00:00
5:52 AM,64.9,62.1,90,29.86,10.0,South,8.1,-,N/A,,Overcast,180,2012-10-24 10:52:00
6:52 AM,64.0,60.1,87,29.86,10.0,South,11.5,-,N/A,,Mostly Cloudy,180,2012-10-24 11:52:00
7:52 AM,63.0,59.0,87,29.88,10.0,South,10.4,-,N/A,,Partly Cloudy,170,2012-10-24 12:52:00
8:52 AM,64.9,60.1,84,29.88,10.0,South,10.4,-,N/A,,Overcast,170,2012-10-24 13:52:00
11:52 AM,73.9,64.0,71,29.85,10.0,South,11.5,-,N/A,,Clear,190,2012-10-24 16:52:00
12:52 PM,77.0,64.9,66,29.83,10.0,SSW,10.4,-,N/A,,Clear,200,2012-10-24 17:52:00
1:52 PM,79.0,64.9,62,29.80,10.0,South,16.1,27.6,0.01,,Clear,170,2012-10-24 18:52:00
2:52 PM,80.1,66.0,62,29.76,10.0,South,18.4,27.6,N/A,,Clear,180,2012-10-24 19:52:00
3:52 PM,80.1,66.0,62,29.75,10.0,South,18.4,26.5,N/A,,Clear,190,2012-10-24 20:52:00
4:52 PM,78.1,64.0,62,29.76,10.0,South,19.6,27.6,N/A,,Clear,180,2012-10-24 21:52:00
5:52 PM,75.9,64.0,67,29.76,10.0,South,15.0,-,N/A,,Clear,180,2012-10-24 22:52:00
6:52 PM,73.9,64.0,71,29.77,10.0,South,12.7,-,N/A,,Clear,180,2012-10-24 23:52:00
8:52 PM,72.0,64.0,76,29.77,10.0,South,16.1,-,N/A,,Clear,170,2012-10-25 01:52:00
9:52 PM,72.0,63.0,73,29.77,10.0,South,15.0,-,N/A,,Clear,180,2012-10-25 02:52:00
10:52 PM,71.1,63.0,75,29.76,10.0,South,15.0,-,N/A,,Clear,180,2012-10-25 03:52:00
11:52 PM,71.1,62.1,73,29.74,10.0,South,19.6,26.5,N/A,,Clear,180,2012-10-25 04:52:00